Weather History for Abbotsford, BC

Change the Weather History Date:

Sunday, June 9, 2013

  Actual Average Record
Temperature  
Mean Temperature 59 °F -  
Max Temperature 67 °F 70 °F 77 °F (2002)
Min Temperature 51 °F 50 °F 42 °F (2012)
Degree Days  
Heating Degree Days 6    
Growing Degree Days 9 (Base 50)    
Moisture  
Dew Point 49 °F    
Average Humidity 72    
Maximum Humidity 94    
Minimum Humidity 39    
Precipitation  
Precipitation 0.00 in 0.08 in - ()
Sea Level Pressure  
Sea Level Pressure 30.08 in    
Wind  
Wind Speed 7 mph ()    
Max Wind Speed 15 mph    
Max Gust Speed 21 mph    
Visibility 16.9 miles    
Events      
Averages and records for this station are not official NWS values.
T = Trace of Precipitation, MM = Missing Value Source: Averaged Metar Reports

Daily Weather History Graph

Daily Weather History Graph

Search for Another Location

Airport:

Trip Planner

Search our weather history database for the weather conditions in past years. The results will help you decide how hot, cold, wet, or windy it might be!

Date:

Astronomy

Jun. 09, 2013 Rise Set
Actual Time 5:05 AM PDT 9:12 PM PDT
Civil Twilight 4:23 AM PDT 9:54 PM PDT
Nautical Twilight 3:23 AM PDT 10:54 PM PDT
Astronomical Twilight 1:16 AM PDT 12:36 AM PDT
Moon 6:12 AM PDT (6/9) 9:55 PM PDT (6/9)
Length of Visible Light 17h 31m
Length of Day
16h 06m
New Moon, 1% of the Moon is Illuminated
Jun 9
New Moon
Jun 16
First Quarter
Jun 23
Full
Jun 29
Last Quarter
Jul 8
New

Hourly Weather History & Observations

Time (PDT) Temp. Dew Point Humidity Pressure Visibility Wind Dir Wind Speed Gust Speed Precip Events Conditions
12:00 AM 55.4 °F 50.0 °F 82% 30.12 in 15.0 mi South 3.5 mph - N/A   Mostly Cloudy
1:00 AM 53.6 °F 50.0 °F 88% 30.11 in 15.0 mi SW 4.6 mph - N/A   Mostly Cloudy
2:00 AM 53.6 °F 50.0 °F 88% 30.10 in 15.0 mi SW 3.5 mph - N/A   Mostly Cloudy
3:00 AM 53.6 °F 50.0 °F 88% 30.09 in 15.0 mi SW 3.5 mph - N/A   Mostly Cloudy
4:00 AM 51.8 °F 50.0 °F 94% 30.09 in 15.0 mi WSW 3.5 mph - N/A   Mostly Cloudy
5:00 AM 52 °F 50 °F 91% 30.09 in 19 mi SW 8.1 mph - -   Mostly Cloudy
5:00 AM 51.8 °F 50.0 °F 94% 30.09 in 20.0 mi SW 8.1 mph - N/A   Mostly Cloudy
6:00 AM 51.8 °F 50.0 °F 94% 30.08 in 20.0 mi WSW 4.6 mph - N/A   Mostly Cloudy
7:00 AM 53.6 °F 50.0 °F 88% 30.09 in 15.0 mi SW 6.9 mph - N/A   Mostly Cloudy
8:00 AM 55.4 °F 51.8 °F 88% 30.09 in 20.0 mi SW 9.2 mph - N/A   Overcast
9:00 AM 57.2 °F 51.8 °F 82% 30.09 in 15.0 mi SSW 6.9 mph - N/A   Mostly Cloudy
10:00 AM 60.8 °F 51.8 °F 72% 30.09 in 25.0 mi SW 11.5 mph - N/A   Mostly Cloudy
11:00 AM 59 °F 51 °F 67% 30.09 in 19 mi WSW 10.4 mph - -   Overcast
11:00 AM 59.0 °F 51.8 °F 77% 30.09 in 20.0 mi WSW 11.5 mph - N/A   Overcast
12:00 PM 60.8 °F 51.8 °F 72% 30.10 in 15.0 mi WSW 10.4 mph 17.3 mph N/A   Mostly Cloudy
1:00 PM 60.8 °F 51.8 °F 72% 30.09 in 20.0 mi WSW 11.5 mph - N/A   Mostly Cloudy
2:00 PM 64.4 °F 50.0 °F 59% 30.07 in 30.0 mi SSW 13.8 mph - N/A   Mostly Cloudy
3:00 PM 64.4 °F 51.8 °F 64% 30.06 in 25.0 mi SW 12.7 mph 20.7 mph N/A   Mostly Cloudy
4:00 PM 68.0 °F 48.2 °F 49% 30.05 in 30.0 mi SSW 13.8 mph - N/A   Scattered Clouds
5:00 PM 65 °F 46 °F 39% 30.05 in 28 mi SSW 13.8 mph - -   Partly Cloudy
5:00 PM 64.4 °F 46.4 °F 52% 30.05 in 30.0 mi SSW 12.7 mph 19.6 mph N/A   Scattered Clouds
6:00 PM 64.4 °F 42.8 °F 45% 30.05 in 30.0 mi SSW 15.0 mph 20.7 mph N/A   Mostly Cloudy
7:00 PM 62.6 °F 44.6 °F 52% 30.04 in 30.0 mi SSW 13.8 mph - N/A   Mostly Cloudy
8:00 PM 60.8 °F 44.6 °F 55% 30.04 in 30.0 mi SSW 11.5 mph - N/A   Partly Cloudy
9:00 PM 55.4 °F 44.6 °F 67% 30.04 in 30.0 mi SW 8.1 mph - N/A   Partly Cloudy
10:00 PM 53.6 °F 42.8 °F 67% 30.05 in 30.0 mi SW 4.6 mph - N/A   Partly Cloudy
11:00 PM 52 °F 44 °F 64% 30.06 in 15 mi Calm Calm - -   Scattered Clouds
11:00 PM 51.8 °F 42.8 °F 71% 30.06 in 15.0 mi Variable 2.3 mph - N/A   Partly Cloudy